Location: Unspecified
(0.0000°N, 0.0000°E)
Time: 09:40:57
(UTC+00:00)

Envisat - Pass Details

Date: 21 January 2019
Orbit: 764 x 766 km, 98.2° (Epoch: 16 January)

Event Time Altitude Azimuth Distance (km) Brightness Sun altitude
Rises 18:51:23 0° 159° (SSE) 3,229 6.2 -9.4°
Reaches altitude 10° 18:53:45 10° 154° (SSE) 2,301 5.4 -10.0°
Maximum altitude 18:58:40 52° 78° (ENE) 948 3.1 -11.1°
Drops below altitude 10° 19:03:34 10° 2° (N) 2,290 5.2 -12.3°
Sets 19:05:54 0° 358° (N) 3,213 6.0 -12.8°
